Wind_Speed
5 3 3 11 13 10 7 7 10 8 9 7 7 6 9 9 11 7 6 6 5 3 2 4 6 8 10 10 8 9 11 12 13 15 12 11 10 11 11 11 10 8 6
4 5 8 8 9 13 11 5 6 9 9 7 5 7 11 7 7 7 7 7 4 2 2 4 7 10 10 10 6 5 9 11 12 15 13 11 10 11 11 10 11 7 6
6 3 10 12 9 2 1 1 5 5 10 12 7 4 8 6 5 4 6 8 5 6 3 3 8 12 10 9 5 5 8 10 11 13 14 10 9 10 10 9 10 7 8
2 8 1 6 5 6 4 11 9 8 9 10 11 10 10 7 7 7 2 4 3 2 8 3 6 9 10 12 8 8 8 9 10 10 12 11 9 9 9 9 8 8 8
9 9 4 7 3 11 12 15 5 5 4 8 8 7 6 11 4 10 9 8 9 1 5 2 8 6 7 12 12 13 7 8 9 9 10 11 8 7 7 8 8 7 8
7 12 13 16 13 12 19 7 5 4 8 5 4 12 9 6 5 8 12 14 12 3 3 5 8 4 5 10 11 13 9 9 10 10 10 10 9 7 6 7 7 7 8
2 7 7 5 3 21 20 8 5 5 9 5 15 22 31 25 26 27 23 32 3 5 3 4 7 6 9 11 8 10 11 10 11 12 9 8 9 6 5 5 5 6 7
2 4 5 35 10 17 20 7 5 8 14 24 11 23 6 17 28 31 20 39 19 5 6 6 6 4 4 2 7 7 11 12 13 12 9 6 6 5 3 3 4 4 5
3 3 1 7 4 7 12 7 13 11 8 14 10 10 3 4 9 6 11 14 24 15 3 4 5 1 5 7 7 7 10 13 13 9 6 5 4 4 3 3 3 3 4
5 5 3 1 1 2 5 10 10 6 4 15 22 10 12 14 4 2 20 22 17 2 11 8 1 1 6 5 11 6 6 11 13 9 5 4 3 3 2 2 2 3 4
6 4 4 3 5 8 9 8 5 8 9 10 11 6 14 14 8 1 2 13 14 7 4 4 6 4 10 15 14 8 8 10 13 11 7 4 3 2 2 0 1 3 4
10 12 6 3 2 4 6 5 6 7 8 9 12 16 16 14 10 8 4 13 6 8 6 4 5 7 8 11 11 4 10 10 10 10 10 8 5 3 4 3 3 3 3
8 14 9 5 2 4 4 6 7 7 8 9 12 11 15 17 17 5 9 10 8 12 3 5 6 7 3 9 10 12 10 11 10 10 9 9 7 5 5 6 6 5 4
6 8 4 5 4 5 6 7 9 10 8 3 10 9 12 14 17 20 3 7 4 9 3 3 2 12 17 8 11 12 4 9 9 9 10 10 10 8 6 6 8 8 7
10 15 13 9 5 6 8 10 8 11 12 8 8 12 11 11 16 17 9 11 3 3 2 3 4 8 5 7 3 3 4 7 9 10 10 11 12 12 10 5 5 8 6
6 3 8 11 8 9 8 8 11 11 10 14 12 8 10 10 14 15 11 18 11 9 3 14 13 12 1 5 9 1 2 6 8 11 11 10 10 11 14 15 9 8 7
8 9 9 8 8 9 9 9 12 14 12 10 13 13 12 10 12 15 17 15 17 12 6 6 6 2 8 2 4 4 1 3 10 13 13 13 12 11 10 11 11 8 5
9 10 11 8 8 9 9 10 11 12 12 13 14 15 13 10 11 12 14 14 14 10 10 11 12 8 3 3 5 5 12 3 8 12 12 15 14 13 12 11 8 5 3
12 10 9 9 9 9 10 10 11 12 13 14 14 15 15 11 11 13 16 16 11 11 10 7 17 16 14 10 12 8 12 4 3 5 8 15 15 10 12 13 12 11 10
11 10 11 10 9 10 10 12 12 13 13 13 12 14 16 13 14 14 16 14 13 10 7 8 12 15 15 14 9 13 9 8 7 7 5 7 11 12 11 13 15 15 14
12 13 13 13 12 13 12 15 16 15 13 11 12 14 15 16 18 18 14 15 13 14 12 11 10 10 11 3 7 7 8 10 11 11 8 7 8 8 10 12 13 14 14
17 17 18 16 16 16 17 14 7 11 12 12 13 14 14 17 18 16 14 15 16 14 13 11 13 8 6 4 5 9 15 10 6 14 11 15 5 3 5 6 10 11 11
15 17 19 18 17 16 18 14 11 12 11 12 12 12 12 12 12 11 17 15 15 14 14 13 12 11 8 6 7 5 4 9 12 9 15 14 8 5 2 4 6 7 7
15 20 20 19 18 15 17 16 16 15 13 12 10 10 11 11 14 15 12 11 6 7 6 4 5 4 5 5 4 4 7 9 9 8 15 7 16 12 6 1 5 6 5
12 12 15 15 18 14 16 16 15 13 10 8 7 8 9 10 10 11 12 9 9 5 3 4 3 5 6 7 8 7 5 6 6 5 8 10 14 14 11 8 4 2 5
6 6 6 6 9 7 10 13 12 11 11 4 4 5 7 4 4 3 4 3 6 5 5 6 7 9 7 9 11 9 8 10 7 1 8 3 4 11 7 13 10 5 4
Wind_Direction
110 124 161 194 219 199 180 195 183 163 169 136 120 129 96 109 140 115 130 136 125 105 44 4 353 348 343 338 348 2 14 12 13 14 11 12 17 10 15 18 23 21 29
170 164 194 201 194 229 211 155 175 193 194 127 147 129 140 148 128 148 141 143 139 136 51 11 358 348 344 341 346 4 10 7 13 16 17 17 25 21 24 36 41 49 63
170 226 237 226 238 273 297 35 195 257 152 136 133 134 116 147 165 154 222 227 248 262 263 331 358 359 4 3 5 6 3 5 10 15 15 19 28 31 31 47 50 73 85
195 268 201 17 48 191 262 195 209 219 161 160 171 178 155 168 186 207 248 272 302 328 264 265 350 358 23 24 13 1 348 358 8 10 12 19 28 37 43 56 57 83 91
255 272 359 35 285 280 284 276 213 186 182 167 172 152 214 189 241 226 226 272 261 259 284 246 0 337 30 26 20 2 4 354 2 8 8 17 29 38 58 67 79 91 109
246 298 5 72 141 257 300 294 100 157 199 242 302 173 183 218 271 326 300 261 245 283 86 54 344 330 17 12 19 21 21 4 0 3 7 11 24 38 48 79 85 106 126
277 357 66 29 123 215 239 82 14 345 309 76 25 353 2 5 8 343 332 343 254 322 271 47 56 3 12 359 9 14 7 9 4 2 9 15 22 38 44 66 99 113 127
326 62 356 145 211 273 288 50 350 8 7 34 62 30 360 352 315 346 3 331 347 18 20 31 21 28 31 13 4 10 14 1 2 360 9 27 28 42 66 80 80 118 133
243 249 102 98 217 66 295 16 32 20 326 357 18 151 184 192 245 3 357 331 253 296 352 307 174 33 86 104 95 44 12 359 359 359 17 41 42 46 65 98 127 131 146
255 295 300 24 335 85 311 31 36 19 17 100 258 276 318 163 175 248 215 230 238 24 30 360 172 29 43 167 349 323 33 12 10 12 11 28 51 40 53 97 120 160 178
222 237 248 306 323 345 9 5 349 341 345 353 350 174 211 232 42 195 260 198 225 157 329 245 39 85 123 99 52 331 47 32 28 26 28 16 357 360 345 263 174 171 184
213 205 212 192 269 312 325 344 348 337 341 340 344 350 354 329 2 1 358 342 356 231 25 171 99 37 88 99 100 77 32 30 22 14 19 25 3 309 291 283 260 244 222
327 250 200 198 243 285 312 316 317 321 324 331 335 329 330 329 334 339 340 339 356 359 112 153 39 83 4 96 69 18 29 14 7 2 2 4 351 323 281 253 242 240 237
50 127 207 227 240 269 278 296 310 310 318 314 309 296 310 310 318 334 310 358 332 331 45 85 53 97 138 80 23 360 341 357 10 8 8 13 10 359 326 271 239 220 224
280 270 288 268 277 276 289 288 296 298 300 309 277 287 277 306 319 337 351 318 7 332 325 231 159 139 265 306 73 345 350 10 22 25 23 28 32 30 22 350 241 215 213
284 270 232 273 287 288 274 284 287 294 302 275 300 331 338 314 322 322 2 335 336 290 298 1 57 123 29 109 65 103 344 32 39 35 33 35 38 43 44 50 77 157 177
239 247 266 276 283 287 282 285 285 279 291 294 291 299 306 299 305 309 318 335 319 12 8 344 57 33 303 20 52 328 103 68 52 46 41 41 41 45 49 59 78 102 124
229 244 254 262 263 274 283 281 280 274 283 281 272 279 280 283 300 305 304 316 344 348 343 323 318 342 27 175 200 219 178 113 57 55 45 39 36 43 51 57 58 54 39
233 245 271 267 268 265 275 277 273 274 284 281 282 293 281 278 281 274 281 289 305 317 344 312 307 304 312 261 206 184 177 170 97 80 48 30 28 42 54 56 59 58 56
241 251 262 265 261 262 264 269 263 263 270 280 282 280 282 281 278 279 277 279 286 287 294 276 287 302 319 310 245 195 169 187 184 157 124 67 36 32 59 63 61 58 54
229 233 238 246 250 239 249 255 251 257 270 276 291 281 282 278 267 270 270 270 273 277 281 286 283 296 329 319 91 339 247 237 194 186 205 138 93 29 56 70 67 57 48
219 232 237 234 236 237 244 242 240 235 263 282 285 286 284 283 287 289 272 264 257 267 273 277 286 285 308 279 192 282 222 198 221 214 198 149 207 67 43 79 77 65 54
234 241 244 245 244 244 253 264 276 277 268 264 273 282 285 282 307 288 275 266 264 262 261 265 279 294 298 278 271 270 224 225 228 222 200 151 185 146 55 62 63 62 51
254 255 254 257 260 261 257 256 269 275 279 269 282 277 276 279 282 285 265 273 272 225 239 248 263 292 330 317 293 291 279 261 245 227 211 160 182 168 190 126 80 55 51
272 272 270 270 269 268 264 265 271 272 259 267 258 285 300 296 294 289 295 255 226 225 341 6 9 9 12 321 301 284 321 316 271 199 197 233 188 173 196 194 167 52 58
274 278 268 271 254 253 269 273 278 269 257 269 261 286 307 287 324 342 24 42 86 102 101 56 32 53 50 28 25 39 25 38 18 358 11 337 168 159 171 211 193 184 158
Height
842 845 846 845 845 845 843 842 843 842 842 842 843 844 844 846 847 848 850 850 850 850 850 849 848 847 846 845 844 843 841 839 837 834 832 831 829 826 824 821 819 818 816
844 844 844 842 843 844 844 845 845 843 844 844 844 845 846 847 846 847 847 848 848 848 848 848 847 845 844 843 842 842 841 839 836 834 833 831 829 827 824 822 821 820 819
842 841 840 841 841 843 846 849 849 845 846 846 846 846 847 848 848 847 847 846 846 847 848 847 846 845 844 842 841 841 840 839 836 834 832 830 829 828 826 824 823 823 822
840 834 838 839 836 838 845 847 847 846 844 844 844 845 846 848 850 849 848 848 847 847 846 846 846 846 844 843 842 842 841 839 836 834 832 831 830 829 828 827 826 826 824
833 831 827 836 834 847 847 845 844 843 841 841 843 847 850 849 849 850 848 848 847 847 845 846 845 845 844 842 842 842 840 840 837 834 832 831 831 830 830 829 829 829 828
833 830 846 853 857 857 849 843 839 840 840 841 843 846 850 852 852 851 849 846 844 846 846 844 844 844 844 844 843 842 840 840 839 836 834 833 832 832 831 831 831 832 832
842 851 848 842 862 859 853 838 838 842 840 842 844 846 855 854 851 850 845 846 843 844 844 844 844 844 843 842 841 841 841 840 839 838 836 833 833 832 832 831 832 832 833
845 852 854 842 865 875 859 840 839 844 847 851 852 863 870 865 850 853 845 852 843 844 846 844 843 842 841 840 839 840 840 840 838 838 836 834 833 832 832 832 832 833 834
844 850 856 861 865 850 854 843 842 846 845 848 860 858 868 870 863 856 856 850 847 846 844 843 841 839 838 839 837 838 838 840 838 837 837 835 833 832 832 833 833 833 833
840 838 844 853 857 856 853 843 847 850 846 853 845 859 857 846 856 863 853 847 842 846 845 842 840 839 837 845 845 843 836 839 839 838 837 835 834 833 833 833 833 833 834
842 842 839 841 842 840 840 842 853 852 848 845 846 854 843 841 845 842 843 845 852 842 836 841 838 836 843 842 831 850 840 838 839 839 838 836 835 834 834 833 831 831 832
839 842 843 842 844 844 846 850 850 850 846 843 841 835 839 842 840 842 842 839 841 841 840 840 838 838 838 842 844 846 840 838 839 840 839 836 834 834 833 833 833 832 832
842 843 844 845 846 847 848 849 849 846 843 842 843 843 844 844 844 843 842 841 841 842 840 838 839 838 843 840 838 836 837 839 840 840 839 836 835 833 832 830 831 832 832
841 842 848 846 845 846 845 844 842 840 840 842 845 847 846 845 844 843 839 840 842 841 840 840 841 839 841 836 837 837 839 842 840 839 838 835 834 832 830 828 828 829 830
840 836 840 844 841 842 840 839 839 840 842 846 847 845 844 842 841 841 840 840 840 844 842 841 840 839 842 839 837 840 841 842 840 840 838 836 833 831 828 826 825 828 830
833 831 838 838 836 836 836 838 839 840 841 841 841 841 840 840 840 841 841 842 840 840 843 841 841 842 841 839 838 840 840 842 841 840 839 837 834 832 830 827 826 827 829
835 835 838 839 837 836 835 836 838 838 840 841 840 840 840 841 841 841 842 843 844 842 842 842 844 841 840 839 838 842 841 843 841 841 840 839 836 834 832 831 830 830 830
835 837 840 838 837 837 838 838 839 840 840 841 841 841 841 840 841 842 842 842 842 841 842 841 842 841 840 840 841 845 846 844 842 842 841 840 838 836 834 833 832 832 832
835 835 836 836 837 836 838 839 840 840 840 841 841 842 841 840 840 840 840 840 840 840 838 839 841 840 839 839 839 840 841 840 842 842 842 841 839 837 836 835 834 833 833
831 832 833 833 834 836 837 837 838 838 839 839 840 840 840 839 839 838 837 837 838 838 839 839 839 839 839 838 837 838 839 840 841 842 842 841 839 838 838 837 836 835 835
826 827 828 829 830 831 832 833 835 836 836 837 837 838 837 837 836 836 835 835 835 834 835 836 837 839 838 836 834 830 839 839 842 843 841 840 839 838 839 837 838 838 837
820 822 824 825 825 826 827 828 829 830 831 833 834 835 834 833 832 833 833 832 833 833 833 833 834 835 836 834 833 835 833 837 838 839 841 840 838 838 838 839 839 839 840
819 820 821 822 822 824 824 826 827 827 827 829 831 831 831 831 831 830 830 830 830 831 831 831 831 833 834 834 833 832 832 832 834 835 835 837 835 836 839 839 839 841 841
817 818 819 820 821 822 823 822 824 825 826 827 828 828 828 828 827 827 828 828 828 827 829 830 830 830 831 832 832 832 831 831 831 830 832 833 834 835 838 840 840 840 840
816 816 817 817 819 820 820 820 821 822 823 824 825 824 826 826 826 825 825 825 827 827 829 829 829 829 829 829 828 829 829 829 829 829 831 831 832 834 837 837 838 840 841
814 814 814 815 816 816 817 818 820 821 822 823 823 823 824 825 826 825 824 824 824 828 829 829 829 830 829 829 830 830 830 829 829 829 830 830 828 830 835 836 836 837 838